This demonstration page uses our WeatherBlox Daily Observations layout. Learn more.

41.55636, -103.73856

Hourly Observations for April 10, 2019

Temp ( °F °C ) Dew Point ( °F °C ) Humidity (%) Winds ( mph kmh ) Pressure ( in mb ) Visibility ( mi km ) Precip ( " mm )
12:58 am 00:58 Mostly Cloudy 64 17.7 32 -0.2 30 30 SSE 8 13 29.49 999 10 16.0934 0 0
1:58 am 01:58 Mostly Cloudy 59 15.1 34 1.2 39 39 ESE 7 11 29.49 999 10 16.0934 0 0
2:58 am 02:58 Cloudy 55 12.6 38 3.5 54 54 E 21 33 29.47 998 10 16.0934 0 0
3:58 am 03:58 Mostly Cloudy 55 12.8 40 4.6 58 58 E 14 22 29.47 998 10 16.0934 0 0
4:58 am 04:58 Partly Cloudy 49 9.3 39 4.1 70 70 N 9 15 29.49 999 10 16.0934 0 0
5:58 am 05:58 Clear 45 7.4 40 4.3 81 81 NNE 16 26 29.49 999 10 16.0934 0 0
6:58 am 06:58 Mostly Cloudy 41 5 38 3.2 88 88 NE 15 24 29.47 998 10 16.0934 0 0
7:58 am 07:58 Cloudy 39 4 36 2.4 89 89 NE 17 28 29.47 998 10 16.0934 0 0
8:58 am 08:58 Mostly Cloudy 38 3.3 36 2.2 93 93 NE 12 19 29.49 999 7 11.26538 0 0
9:58 am 09:58 Mostly Cloudy with Drizzle 36 2.1 34 1.3 95 95 NNE 16 26 29.52 1000 3 4.82802 0 0
10:58 am 10:58 Mostly Cloudy with Light Rain 35 1.6 34 1 96 96 NE 15 24 29.5 999 1 1.60934 0.01 0.254
11:58 am 11:58 Mostly Cloudy with Light Rain 34 1.1 33 0.3 94 94 NE 17 28 29.48 998 1 1.60934 0 0
12:58 pm 12:58 Mostly Cloudy with Light Rain 33 0.6 32 0 96 96 ENE 20 31 29.53 1000 5 8.0467 0 0
1:58 pm 13:58 Mostly Cloudy with Light Rain 33 0.6 32 0 96 96 ENE 16 26 29.54 1001 5 8.0467 0 0
2:58 pm 14:58 Mostly Cloudy with Light Freezing Rain 29 -1.7 28 -2.3 96 96 NE 20 31 29.61 1003 1 1.60934 0 0
3:58 pm 15:58 Cloudy with Light Freezing Rain 27 -2.9 26 -3.3 97 97 E 5 7 29.7 1006 0.75 1.207005 0 0
4:58 pm 16:58 Cloudy with Heavy Snow 26 -3.3 25 -4 95 95 NE 14 22 29.67 1005 5 8.0467 0 0
5:58 pm 17:58 Mostly Cloudy with Snow 26 -3.1 25 -3.9 94 94 NE 23 37 29.62 1003 1 1.60934 0.01 0.254
6:58 pm 18:58 Windy with Snow Likely 25 -4.1 23 -5.1 93 93 NE 20 31 29.66 1004 10 16.0934 0 0
7:58 pm 19:58 Cloudy with Light Snow Showers 23 -4.8 22 -5.8 93 93 NNE 10 17 29.75 1007 3 4.82802 0 0
8:58 pm 20:58 Cloudy with Snow 22 -5.4 20 -6.4 93 93 NNE 20 31 29.73 1007 3 4.82802 0 0
9:58 pm 21:58 Cloudy with Heavy Snow 20 -6.9 17 -8.2 91 91 N 23 37 29.78 1008 3 4.82802 0 0
10:58 pm 22:58 Cloudy with Snow 18 -7.9 16 -9.1 91 91 N 23 37 29.81 1010 3 4.82802 0 0
11:58 pm 23:58 Cloudy with Snow 17 -8.3 15 -9.6 90 90 NNE 21 33 29.86 1011 0.5 0.80467 0 0

Powered by AerisWeather